Regional Weather Roundup
Issued by NWS

Home | Current Version | Previous Version | Text Only | Print | Product List | Glossary On
Versions: 1 2 3 4 5 6 7 8 9 10 11 12 13 14 15 16 17 18 19 20 21 22 23 24 25 26 27 28 29 30 31 32 33 34 35 36 37 38 39 40 41 42 43 44 45 46 47 48 49 50
000
ASUS43 KDMX 290506
RWRIA

WEATHER ROUNDUP FOR IOWA
NATIONAL WEATHER SERVICE DES MOINES IA
1200 AM CDT THU JUN 29 2017

NOTE: "FAIR" INDICATES FEW OR NO CLOUDS BELOW 12,000 FEET WITH NO
SIGNIFICANT WEATHER AND/OR OBSTRUCTIONS TO VISIBILITY.

* - THESE STATIONS ARE NOT NWS STATIONS...THUS NOT UNDER NWS
QUALITY CONTROL.  THEY ALSO DO NOT REPORT WEATHER SUCH
AS PRECIPITATION OR FOG.

IAZ001>003-012>014-020>022-031>034-043>046-290600-
   NORTHWEST IOWA

CITY           SKY/WX    TMP DP  RH WIND       PRES   REMARKS
CARROLL *      CLEAR     72  70  94 SW8       29.70R
CHEROKEE *     CLEAR     67  64  90 CALM      29.70R
DENISON *      CLEAR     68  66  94 E6        29.71S
LE MARS *      CLEAR     64  61  88 CALM      29.71R
ORANGE CITY *  CLEAR     72  63  73 CALM      29.71R
SHELDON *      CLEAR     64  61  88 N6        29.70R
SIOUX CITY     PTCLDY    68  65  90 CALM      29.69R
SPENCER        CLEAR     64  63  96 NW3       29.70R
STORM LAKE *   CLEAR     70  64  83 NW8       29.71R
$$

IAZ055>058-069>071-079>083-090>094-290600-
   SOUTHWEST IOWA

CITY           SKY/WX    TMP DP  RH WIND       PRES   REMARKS
ATLANTIC *     CLEAR     68  66  94 SW3       29.71S
AUDUBON *      MOCLDY    70  64  83 CALM      29.72S
CLARINDA *     CLOUDY    72  72 100 CALM      29.73S
COUNCIL BLFS * CLEAR     70  70 100 SE9       29.70R
CRESTON *      CLOUDY    68  66  94 S8        29.75S
HARLAN  *      CLEAR     68  68 100 CALM      29.74R
LAMONI         CLOUDY    67  64  90 SW14      29.74R
RED OAK *      CLOUDY    70  70 100 CALM      29.70F
SHENANDOAH *   CLOUDY    72  70  94 S6        29.72R
$$

IAZ047>049-059>061-072>074-084-290600-
   CENTRAL IOWA

CITY           SKY/WX    TMP DP  RH WIND       PRES   REMARKS
AMES           CLOUDY    66  65  96 S7        29.70R
ANKENY *       CLOUDY    70  64  83 CALM      29.71S
BOONE *        PTCLDY    68  64  88 SW3       29.70R
CHARITON *     CLOUDY    68  64  88 S10       29.74R
DES MOINES     CLOUDY    70  66  87 SW7       29.71R
GRINNELL*      MOCLDY    69  63  80 SW9       29.73S
KNOXVILLE *    CLOUDY    70  64  83 S10       29.71R
MARSHALLTOWN   CLOUDY    68  65  90 S8        29.69R
NEWTON *       CLOUDY    68  64  88 S3        29.72R
PELLA *        CLOUDY    70  64  81 S7        29.73R
PERRY *        MOCLDY    67  66  96 S6        29.71R
$$

IAZ004>006-015-016-023>025-035-036-290600-
   NORTH CENTRAL IOWA

CITY           SKY/WX    TMP DP  RH WIND       PRES   REMARKS
ALGONA *       CLEAR     73  68  83 NW6       29.69R
CLARION *        N/A     68  68 100 S8        29.68R
ESTHERVILLE    CLEAR     68  65  90 N8        29.70R
FORT DODGE *   PTCLDY    68  64  88 CALM      29.69S
MASON CITY     CLOUDY    69  66  90 SW7       29.71R
FOREST CITY *    N/A     68  57  68 CALM      29.69R
WEBSTER CITY * CLEAR     68  66  94 S8        29.67R
IOWA FALLS *     N/A     69  65  87 SW10      29.70R
$$

IAZ007>011-017>019-026>030-037>042-050>054-066-290600-
   NORTHEAST IOWA

CITY           SKY/WX    TMP DP  RH WIND       PRES   REMARKS
CEDAR RAPIDS   CLOUDY    72  70  93 SW9       29.68S
CHARLES CITY * LGT RAIN  68  68 100 CALM      29.70R
CLINTON *      MOCLDY    76  67  73 SW14      29.68F
DECORAH *      CLOUDY    66  63  88 CALM      29.69R
DUBUQUE        CLOUDY    70  67  90 SW6       29.71R
MONTICELLO *   CLOUDY    70  66  88 CALM      29.69R
OELWEIN *      CLOUDY    66  64  94 W6        29.69R
WATERLOO       CLOUDY    69  62  78 SW9       29.67R
$$

IAZ064-065-067-068-078-290600-
   EAST CENTRAL IOWA

CITY           SKY/WX    TMP DP  RH WIND       PRES   REMARKS
IOWA CITY      CLOUDY    76  69  79 SW6       29.71S
MT. PLEASANT * CLOUDY    73  61  65 SW9G21    29.74R
MUSCATINE *    MOCLDY    79  66  65 SW12      29.70S HX  81
QUAD CITIES    MOCLDY    79  65  62 SW13      29.68F HX  81
$$

IAZ062-063-075>077-085>089-095>099-290600-
   SOUTHEAST IOWA

CITY           SKY/WX    TMP DP  RH WIND       PRES   REMARKS
BURLINGTON     LGT RAIN  72  66  81 S29G43    29.75R
FAIRFIELD *    CLOUDY    73  61  64 SW10      29.75R
FORT MADISON * RAIN      70  66  88 S24G31    29.80S
KEOKUK *       CLOUDY    68  66  94 S17G29    29.85S
OSKALOOSA *      N/A     70  63  77 SW14G23   29.74R
CENTERVILLE *    N/A     66  64  94 SE17G24   29.79R
OTTUMWA        CLOUDY    72  64  76 SW18G26   29.74R
WASHINGTON *   CLOUDY    75  64  69 SW14G23   29.73S
$$

ABBREVIATIONS USED IN REMARKS
   TC - TEMPERATURES IN CELSIUS
  WCI - WIND CHILL INDEX
   HX - HEAT INDEX
  VSB - VISIBILITY
$$





USA.gov is the U.S. government's official web portal to all federal, state and local government web resources and services.